FW8197 Weather Reports


Display with metric or nautical units.
time (UTC)temp
F
wind
direction
speed
MPH
gust
MPH
rain 1hr
in
rain 24hr
in
rain mn
in
humidity
%
barometer
mb
20260503004613 0 0.0 0.0 0.00 0.12 0.00 1011.8
20260503003056 0 0.0 0.0 0.00 0.12 0.00 1012.0
20260503001559 0 0.0 0.0 0.00 0.12 0.00 1012.0
20260503000105 0 0.0 0.0 0.00 0.12 0.00 1012.1
20260502234603 0 0.0 0.0 0.00 0.12 0.00 1012.2
20260502233058 0 0.0 0.0 0.00 0.12 0.00 1012.2
20260502231556 0 0.0 0.0 0.00 0.12 0.00 1012.3
20260502230056 0 0.0 0.0 0.00 0.12 0.00 1012.2
20260502224559 0 0.0 0.0 0.00 0.12 0.12 1012.2
20260502223101 0 0.0 0.0 0.00 0.12 0.12 1012.2
20260502221615 0 0.0 0.0 0.00 0.12 0.12 1012.3
20260502220103 0 0.0 0.0 0.00 0.12 0.12 1012.3
20260502214558 0 0.0 0.0 0.00 0.12 0.12 1012.3
20260502213058 0 0.0 0.0 0.00 0.12 0.12 1012.4
20260502211557 0 0.0 0.0 0.00 0.12 0.12 1012.4
20260502210120 0 0.0 0.0 0.00 0.12 0.12 1012.3
20260502204557 0 0.0 0.0 0.00 0.12 0.12 1012.3
20260502203058 0 0.0 0.0 0.00 0.12 0.12 1012.3
20260502201557 0 0.0 0.0 0.00 0.12 0.12 1012.1
20260502200126 0 0.0 0.0 0.00 0.12 0.12 1012.1
20260502194604 0 0.0 0.0 0.00 0.12 0.12 1012.0
20260502193059 0 0.0 0.0 0.00 0.12 0.12 1012.0
20260502191603 0 0.0 0.0 0.00 0.12 0.12 1012.0
20260502190100 0 0.0 0.0 0.00 0.12 0.12 1011.9
20260502184615 0 0.0 0.0 0.00 0.12 0.12 1011.9
20260502183100 0 0.0 0.0 0.00 0.12 0.12 1012.0
20260502181556 0 0.0 0.0 0.00 0.12 0.12 1012.0
20260502170105 0 0.0 0.0 0.00 0.12 0.12 1012.1
20260502163100 0 0.0 0.0 0.00 0.12 0.12 1012.3
20260502161605 0 0.0 0.0 0.00 0.12 0.12 1012.4
20260502151610 0 0.0 0.0 0.00 0.12 0.12 1012.9
20260502130107 0 0.0 0.0 0.00 0.12 0.12 1013.9
20260502123056 57 5.0 10.0 0.00 0.12 0.12 85 1013.8
20260502121556 57 146 4.0 8.0 0.00 0.12 0.12 86 1014.0
20260502114558 55 156 5.0 11.0 0.00 0.12 0.12 87 1014.4
20260502113058 55 114 3.0 10.0 0.00 0.12 0.12 88 1014.5
20260502111556 55 113 3.0 7.0 0.00 0.12 0.12 89 1014.4
20260502110103 55 126 5.0 11.0 0.00 0.12 0.12 89 1014.4
20260502104556 55 150 3.0 8.0 0.00 0.12 0.12 90 1014.5
20260502103107 54 180 3.0 12.0 0.00 0.12 0.12 91 1014.7
20260502101613 54 160 4.0 8.0 0.00 0.12 0.12 92 1014.8
20260502100104 53 143 4.0 11.0 0.01 0.12 0.12 92 1014.9
20260502090114 52 139 4.0 8.0 0.09 0.11 0.11 93 1015.2
20260502070110 51 185 2.0 6.0 0.00 0.00 0.00 93 1015.5
20260502064620 51 179 2.0 6.0 0.00 0.00 0.00 93 1015.5
20260502063057 51 149 2.0 4.0 0.00 0.00 0.00 94 1015.3
20260502061555 50 118 0.0 3.0 0.00 0.00 0.00 94 1015.4
20260502060100 50 0 0.0 1.0 0.00 0.00 0.00 94 1015.4
20260502054559 50 132 0.0 1.0 0.00 0.00 0.00 94 1015.5
20260502053104 50 0 0.0 2.0 0.00 0.00 0.00 94 1015.6
20260502051559 50 116 0.0 2.0 0.00 0.00 0.00 94 1015.5
20260502050059 50 0 0.0 1.0 0.00 0.00 0.00 94 1015.7
20260502044559 50 0 0.0 0.0 0.00 0.00 0.00 94 1015.6
20260502043059 50 0 0.0 0.0 0.00 0.00 0.00 93 1015.8
20260502041604 50 0 0.0 0.0 0.00 0.00 0.00 93 1016.0
20260502040058 50 0 0.0 0.0 0.00 0.00 0.00 93 1016.1
20260502034556 50 0 0.0 0.0 0.00 0.00 0.00 94 1016.2
20260502033108 50 0 0.0 0.0 0.00 0.00 0.00 93 1016.3
20260502031601 50 0 0.0 0.0 0.00 0.00 0.00 93 1016.4
20260502030058 50 0 0.0 0.0 0.00 0.00 0.00 93 1016.4
20260502024607 50 0 0.0 0.0 0.00 0.00 0.00 93 1016.6
20260502023121 50 0 0.0 0.0 0.00 0.00 0.00 93 1016.7
20260502021557 50 0 0.0 0.0 0.00 0.00 0.00 93 1017.0
20260502020056 50 0 0.0 0.0 0.00 0.00 0.00 93 1017.1
20260502014557 50 0 0.0 0.0 0.00 0.00 0.00 92 1017.3
20260502013100 51 0 0.0 0.0 0.00 0.00 0.00 92 1017.4
20260502011556 51 0 0.0 0.0 0.00 0.00 0.00 92 1017.6
20260502010055 51 0 0.0 0.0 0.00 0.00 0.00 92 1017.7